| time (UTC) | temp F | wind direction | speed MPH | gust MPH | rain 1hr in | rain 24hr in | rain mn in | humidity % | barometer mb |
| 20260503231534 | 59 | 195 | 7.0 | 0.0 | 0.00 | 0.00 | 0.00 | 27 | 1009.8 |
| 20260503230038 | 60 | 158 | 5.0 | 0.0 | 0.00 | 0.00 | 0.00 | 27 | 1009.8 |
| 20260503224532 | 60 | 179 | 6.0 | 0.0 | 0.00 | 0.00 | 0.00 | 26 | 1009.7 |
| 20260503223031 | 60 | 171 | 7.0 | 0.0 | 0.00 | 0.00 | 0.00 | 25 | 1009.4 |
| 20260503221539 | 60 | 203 | 9.0 | 0.0 | 0.00 | 0.00 | 0.00 | 25 | 1009.6 |
| 20260503220030 | 60 | 206 | 6.0 | 0.0 | 0.00 | 0.00 | 0.00 | 26 | 1009.6 |
| 20260503214529 | 60 | 216 | 10.0 | 0.0 | 0.00 | 0.00 | 0.00 | 25 | 1009.4 |
| 20260503213029 | 59 | 222 | 8.0 | 0.0 | 0.00 | 0.00 | 0.00 | 25 | 1009.4 |
| 20260503211528 | 59 | 205 | 9.0 | 0.0 | 0.00 | 0.00 | 0.00 | 25 | 1009.4 |
| 20260503210029 | 59 | 179 | 11.0 | 0.0 | 0.00 | 0.00 | 0.00 | 26 | 1009.3 |
| 20260503204543 | 59 | 308 | 9.0 | 0.0 | 0.00 | 0.00 | 0.00 | 25 | 1009.4 |
| 20260503203028 | 60 | 195 | 10.0 | 0.0 | 0.00 | 0.00 | 0.00 | 25 | 1009.6 |
| 20260503201529 | 60 | 216 | 10.0 | 0.0 | 0.00 | 0.00 | 0.00 | 26 | 1009.7 |
| 20260503200029 | 60 | 209 | 7.0 | 0.0 | 0.00 | 0.00 | 0.00 | 26 | 1009.8 |
| 20260503194528 | 59 | 145 | 11.0 | 0.0 | 0.00 | 0.00 | 0.00 | 27 | 1009.9 |
| 20260503193035 | 59 | 154 | 11.0 | 0.0 | 0.00 | 0.00 | 0.00 | 28 | 1010.0 |
| 20260503191526 | 59 | 205 | 9.0 | 0.0 | 0.00 | 0.00 | 0.00 | 28 | 1010.1 |
| 20260503190027 | 59 | 183 | 7.0 | 0.0 | 0.00 | 0.00 | 0.00 | 31 | 1010.4 |
| 20260503184533 | 57 | 243 | 11.0 | 0.0 | 0.00 | 0.00 | 0.00 | 31 | 1010.4 |
| 20260503183019 | 58 | 195 | 7.0 | 0.0 | 0.00 | 0.00 | 0.00 | 33 | 1010.4 |
| 20260503181518 | 57 | 168 | 8.0 | 0.0 | 0.00 | 0.00 | 0.00 | 35 | 1010.7 |
| 20260503180024 | 55 | 199 | 8.0 | 0.0 | 0.00 | 0.00 | 0.00 | 34 | 1010.9 |
| 20260503174518 | 54 | 227 | 9.0 | 0.0 | 0.00 | 0.00 | 0.00 | 36 | 1010.8 |
| 20260503173016 | 54 | 200 | 6.0 | 0.0 | 0.00 | 0.00 | 0.00 | 40 | 1010.9 |
| 20260503171513 | 54 | 205 | 9.0 | 0.0 | 0.00 | 0.00 | 0.00 | 34 | 1010.9 |
| 20260503081540 | 46 | 308 | 1.0 | 0.0 | 0.00 | 0.00 | 0.00 | 50 | 1009.4 |
| 20260503071539 | 47 | 199 | 1.0 | 0.0 | 0.00 | 0.00 | 0.00 | 46 | 1009.3 |
| 20260503054535 | 50 | 327 | 2.0 | 0.0 | 0.00 | 0.00 | 0.00 | 40 | 1009.7 |
| 20260503053034 | 50 | 302 | 4.0 | 0.0 | 0.00 | 0.00 | 0.00 | 39 | 1009.9 |
| 20260503051525 | 50 | 323 | 3.0 | 0.0 | 0.00 | 0.00 | 0.00 | 40 | 1010.0 |
| 20260503050026 | 50 | 329 | 2.0 | 0.0 | 0.00 | 0.00 | 0.00 | 41 | 1010.2 |
| 20260503044526 | 51 | 278 | 2.0 | 0.0 | 0.00 | 0.00 | 0.00 | 41 | 1010.1 |
| 20260503043023 | 51 | 337 | 2.0 | 0.0 | 0.00 | 0.00 | 0.00 | 39 | 1010.2 |
| 20260503041522 | 51 | 308 | 2.0 | 0.0 | 0.00 | 0.00 | 0.00 | 38 | 1010.3 |
| 20260503040018 | 52 | 320 | 3.0 | 0.0 | 0.00 | 0.00 | 0.00 | 37 | 1010.2 |
| 20260503034533 | 52 | 327 | 1.0 | 0.0 | 0.00 | 0.00 | 0.00 | 38 | 1010.1 |
| 20260503033018 | 52 | 339 | 1.0 | 0.0 | 0.00 | 0.00 | 0.00 | 39 | 1010.1 |
| 20260503031520 | 52 | 271 | 1.0 | 0.0 | 0.00 | 0.00 | 0.00 | 38 | 1010.1 |
| 20260503030017 | 53 | 295 | 1.0 | 0.0 | 0.00 | 0.00 | 0.00 | 37 | 1010.2 |
| 20260503024517 | 53 | 320 | 1.0 | 0.0 | 0.00 | 0.00 | 0.00 | 35 | 1010.1 |
| 20260503023017 | 53 | 315 | 2.0 | 0.0 | 0.00 | 0.00 | 0.00 | 35 | 1010.0 |
| 20260503021517 | 54 | 336 | 2.0 | 0.0 | 0.00 | 0.00 | 0.00 | 35 | 1010.1 |
| 20260503020016 | 54 | 246 | 1.0 | 0.0 | 0.00 | 0.00 | 0.00 | 35 | 1010.2 |
| 20260503014518 | 54 | 278 | 2.0 | 0.0 | 0.00 | 0.00 | 0.00 | 35 | 1010.2 |
| 20260503013018 | 54 | 335 | 1.0 | 0.0 | 0.00 | 0.00 | 0.00 | 35 | 1010.1 |
| 20260503011516 | 55 | 335 | 2.0 | 0.0 | 0.00 | 0.00 | 0.00 | 34 | 1010.0 |
| 20260503010016 | 55 | 315 | 2.0 | 0.0 | 0.00 | 0.00 | 0.00 | 34 | 1009.8 |
| 20260503004515 | 55 | 288 | 2.0 | 0.0 | 0.00 | 0.00 | 0.00 | 34 | 1009.6 |
| 20260503003017 | 55 | 327 | 1.0 | 0.0 | 0.00 | 0.00 | 0.00 | 34 | 1009.4 |
| 20260503001516 | 56 | 330 | 0.0 | 0.0 | 0.00 | 0.00 | 0.00 | 36 | 1009.3 |
| 20260503000016 | 57 | 213 | 2.0 | 0.0 | 0.00 | 0.00 | 0.00 | 35 | 1009.3 |
| 20260502234515 | 57 | 203 | 4.0 | 0.0 | 0.00 | 0.00 | 0.00 | 34 | 1009.3 |
| 20260502233015 | 58 | 199 | 2.0 | 0.0 | 0.00 | 0.00 | 0.00 | 35 | 1009.2 |